[[{"header":{"parameterUnit":"m.s-1","parameterCategory":1,"la1":30.2991,"la2":30.254,"lo1":-89.0895,"lo2":-89.0444,"dy":0.0017,"dx":0.0017,"nx":28,"ny":28,"refTime":"2024-02-19T03:00:00:Z","depth":0,"parameterNumber":2,"parameterNumberName":"U-component_of_WINDS"},"data":[0,0,0,0,0,0,0,0,0,0,0,0,0,0,0,0,0,0,0,0,0,0,0,0,0,0,0,0,0,0,0,0,0,0,0,0,0,0,0,0,0,0,0,0,0,0,0,0,0,0,0,0,0,0,0,0,0,0,1.6373,1.6375,0,1.6514,1.6515,1.6517,1.6561,1.6561,1.656,1.6559,1.6704,1.6708,1.6712,0,0,0,0,0,0,0,0,0,0,0,0,0,1.6141,1.6145,1.6373,1.6375,1.6377,1.6514,1.6516,1.6517,1.6562,1.6561,1.656,1.6559,1.6702,1.6707,1.6713,0,0,0,0,0,0,0,0,0,0,0,0,0,1.6258,1.6146,1.6373,1.6415,1.642,1.6513,1.6516,1.6518,1.6562,1.6561,1.656,1.6559,1.67,1.6707,1.6714,1.6775,0,0,1.6734,1.6737,0,0,0,0,0,0,0,0,1.6251,1.6266,1.6407,1.6412,1.6418,1.6519,1.6487,1.6604,1.6562,1.6508,1.6559,1.6558,1.6643,1.6654,1.6683,1.6781,1.6788,1.6735,1.6739,1.6742,1.6743,0,0,0,0,0,0,0,1.6243,1.626,1.6429,1.6409,1.6416,1.6427,1.6442,1.6509,1.6579,1.6513,1.6516,1.6532,1.6646,1.6676,1.6687,1.679,1.6734,1.674,1.6744,1.6747,1.6943,1.6944,0,0,0,0,0,0,1.6228,1.6253,1.6424,1.6433,1.6331,1.6432,1.6449,1.6488,1.6579,1.6592,1.6533,1.6534,1.6666,1.6679,1.6692,1.6768,1.6741,1.6748,1.6752,1.6942,1.6943,1.6945,0,0,0,0,0,0,1.6223,1.6243,1.6419,1.6344,1.6367,1.6437,1.648,1.6491,1.6522,1.6594,1.6607,1.6551,1.6665,1.6683,1.6753,1.6774,1.6751,1.6757,1.6941,1.6942,1.6944,1.6921,0,0,0,0,0,0,1.6216,1.6241,1.6265,1.6344,1.6371,1.6478,1.6481,1.6494,1.6533,1.6535,1.6615,1.6627,1.6666,1.6743,1.676,1.6782,1.6762,1.6939,1.6941,1.6943,1.692,1.6922,1.6923,0,0,0,0,0,1.6207,1.6253,1.6266,1.6286,1.6403,1.6479,1.6494,1.6538,1.6534,1.6559,1.6605,1.6624,1.6769,1.675,1.6769,1.6794,1.6938,1.6941,1.6943,1.692,1.6922,1.6923,0,0,0,0,0,0,1.6175,1.6264,1.628,1.6353,1.6408,1.6486,1.6519,1.6539,1.6597,1.6596,1.6648,1.6666,1.6732,1.6771,1.6748,1.6857,1.6854,1.6861,1.6829,1.6832,1.6833,1.6822,1.6768,0,0,0,0,0,1.6176,1.623,1.6306,1.6363,1.639,1.6449,1.6484,1.6513,1.6572,1.6596,1.6647,1.6704,1.6762,1.6799,1.6857,1.6926,1.6943,1.6953,1.6954,1.6955,1.696,1.6998,1.7002,1.6954,1.6954,1.6953,0,0,1.6179,1.6235,1.6266,1.6357,1.6404,1.6458,1.6469,1.6526,1.6567,1.6605,1.6674,1.6714,1.678,1.685,1.6883,1.6884,1.6977,1.6958,1.6958,1.6963,1.7001,1.7005,1.7009,1.6955,1.6955,1.6955,0,0,1.6212,1.626,1.6312,1.6358,1.6427,1.6467,1.6479,1.6554,1.6582,1.6653,1.6681,1.673,1.683,1.6875,1.6912,1.696,1.6979,1.6978,1.6985,1.7021,1.7025,1.7029,1.7044,1.705,1.6982,1.6982,1.6982,0,1.6207,1.629,1.6336,1.6392,1.6431,1.6467,1.6519,1.6562,1.6646,1.6672,1.6671,1.6795,1.6843,1.6923,1.6935,1.6963,1.6978,1.6969,1.7021,1.7025,1.7029,1.7045,1.7051,1.6982,1.6982,1.6982,1.6982,0,1.628,1.6337,1.6371,1.6451,1.6494,1.6547,1.6601,1.6638,1.6663,1.6702,1.6772,1.6831,1.69,1.6921,1.6946,1.7004,1.7002,1.7011,1.7009,1.7032,1.7047,1.7054,1.6981,1.6981,1.6981,1.6981,0,0,1.6296,1.64,1.6412,1.6448,1.6527,1.6572,1.6626,1.6694,1.6724,1.6781,1.6828,1.691,1.6918,1.6959,1.6989,1.7021,1.7054,1.7026,1.7028,1.7028,1.712,1.7112,1.7118,1.7067,1.7069,1.707,1.7114,0,1.6338,1.6438,1.648,1.656,1.6612,1.6647,1.6695,1.6748,1.6785,1.6835,1.6876,1.6933,1.694,1.6965,1.6998,1.7043,1.7073,1.7041,1.711,1.7112,1.7091,1.7127,1.712,1.7158,1.712,1.7121,1.7122,0,1.6401,1.6457,1.6542,1.6613,1.6637,1.6679,1.6743,1.679,1.6851,1.6876,1.692,1.6949,1.7007,1.7001,1.7081,1.7058,1.7089,1.7115,1.7118,1.7126,1.7118,1.7134,1.7172,1.7177,1.7132,1.7132,1.7131,0,1.6402,1.65,1.6563,1.6593,1.6678,1.6706,1.6742,1.6802,1.6839,1.6895,1.692,1.6982,1.7016,1.7063,1.7107,1.7099,1.7182,1.7181,1.7203,1.7202,1.7219,1.7217,1.7261,1.724,1.724,1.724,1.724,0,1.6444,1.6494,1.6564,1.6603,1.6659,1.6707,1.6762,1.6801,1.6853,1.6899,1.6934,1.6976,1.7033,1.7082,1.7117,1.7177,1.7192,1.7213,1.7222,1.721,1.7207,1.723,1.7228,1.7242,1.7241,1.7241,1.7241,0,1.6455,1.6504,1.6575,1.6649,1.6669,1.6707,1.677,1.6809,1.6847,1.6905,1.6922,1.6982,1.7042,1.7091,1.717,1.7193,1.7255,1.7266,1.7235,1.7239,1.7259,1.7256,1.7318,1.7328,1.7302,1.7302,1.7302,0,1.6478,1.6517,1.6595,1.6629,1.6665,1.6718,1.6756,1.6804,1.6842,1.6913,1.6942,1.7005,1.7057,1.7151,1.7202,1.7261,1.7273,1.7291,1.7282,1.7268,1.7272,1.7268,1.7272,1.7291,1.7291,1.7291,1.7291,0,1.6513,1.6535,1.6589,1.665,1.6694,1.6745,1.6797,1.6822,1.6879,1.692,1.6981,1.7022,1.7101,1.7162,1.7227,1.7265,1.7287,1.7293,1.7302,1.7289,1.7269,1.7279,1.7236,1.7292,1.7292,1.7292,1.7292,1.7292,1.653,1.6566,1.6626,1.6684,1.6728,1.6775,1.6814,1.6857,1.6909,1.6978,1.7003,1.7066,1.7124,1.7213,1.7251,1.73,1.7302,1.7315,1.7318,1.732,1.7317,1.7262,1.7312,1.7312,1.7312,1.7312,1.7312,0,1.6566,1.6606,1.6659,1.6729,1.6775,1.6792,1.685,1.6886,1.694,1.6993,1.7043,1.7113,1.7172,1.7227,1.7288,1.7317,1.7329,1.7331,1.7329,1.7337,1.7312,1.7298,1.7321,1.7321,1.7321,1.7321,1.7321,1.7321,1.6589,1.665,1.6679,1.6762,1.6802,1.6863,1.6894,1.6938,1.698,1.7056,1.7105,1.714,1.7194,1.7259,1.7313,1.7328,1.7348,1.7348,1.7365,1.7341,1.7339,1.7338,1.7325,1.7352,1.7352,1.7386,1.7386,1.7387]},{"header":{"parameterUnit":"m.s-1","parameterCategory":1,"la1":30.2991,"la2":30.254,"lo1":-89.0895,"lo2":-89.0444,"dy":0.0017,"dx":0.0017,"nx":28,"ny":28,"refTime":"2024-02-19T03:00:00:Z","depth":0,"parameterNumber":3,"parameterNumberName":"V-component_of_WINDS"},"data":[0,0,0,0,0,0,0,0,0,0,0,0,0,0,0,0,0,0,0,0,0,0,0,0,0,0,0,0,0,0,0,0,0,0,0,0,0,0,0,0,0,0,0,0,0,0,0,0,0,0,0,0,0,0,0,0,0,0,2.4981,2.4981,0,2.4945,2.4944,2.4944,2.4933,2.4933,2.4934,2.4934,2.4892,2.4891,2.489,0,0,0,0,0,0,0,0,0,0,0,0,0,2.5036,2.5035,2.4981,2.4981,2.498,2.4945,2.4944,2.4944,2.4933,2.4933,2.4934,2.4934,2.4893,2.4891,2.4889,0,0,0,0,0,0,0,0,0,0,0,0,0,2.5007,2.5035,2.4981,2.4971,2.4969,2.4945,2.4944,2.4943,2.4933,2.4933,2.4934,2.4934,2.4893,2.4891,2.4889,2.4871,0,0,2.4883,2.4882,0,0,0,0,0,0,0,0,2.5009,2.5005,2.4973,2.4971,2.497,2.4944,2.4948,2.4919,2.4933,2.4947,2.4934,2.4934,2.4909,2.4906,2.4898,2.4869,2.4867,2.4883,2.4882,2.4881,2.488,0,0,0,0,0,0,0,2.5011,2.5007,2.4966,2.4972,2.4971,2.4966,2.4962,2.4943,2.4926,2.4946,2.4945,2.4941,2.4908,2.49,2.4897,2.4867,2.4883,2.4881,2.488,2.4879,2.4818,2.4818,0,0,0,0,0,0,2.5015,2.5008,2.4968,2.4965,2.4991,2.4965,2.4961,2.4952,2.4927,2.4923,2.4941,2.494,2.4903,2.4899,2.4895,2.4871,2.4881,2.4879,2.4878,2.4818,2.4818,2.4817,0,0,0,0,0,0,2.5017,2.5012,2.4969,2.4987,2.4981,2.4964,2.4954,2.4951,2.4943,2.4923,2.4919,2.4936,2.4903,2.4898,2.4877,2.4869,2.4878,2.4877,2.4819,2.4818,2.4818,2.4822,0,0,0,0,0,0,2.5018,2.5012,2.5007,2.4987,2.498,2.4953,2.4953,2.495,2.494,2.4939,2.4917,2.4914,2.4903,2.488,2.4875,2.4867,2.4875,2.482,2.4819,2.4818,2.4823,2.4822,2.4821,0,0,0,0,0,2.502,2.5009,2.5007,2.5002,2.4973,2.4953,2.4949,2.4938,2.4939,2.4932,2.4919,2.4914,2.4871,2.4878,2.4872,2.4863,2.482,2.4819,2.4818,2.4823,2.4822,2.4821,0,0,0,0,0,0,2.5028,2.5006,2.5003,2.4986,2.4971,2.4951,2.4942,2.4937,2.4921,2.4921,2.4907,2.4902,2.4881,2.487,2.4878,2.4843,2.4845,2.4843,2.4851,2.485,2.4849,2.4852,2.4873,0,0,0,0,0,2.5027,2.5014,2.4996,2.4982,2.4975,2.496,2.495,2.4943,2.4927,2.492,2.4906,2.4889,2.4871,2.486,2.4843,2.4821,2.4815,2.4812,2.4811,2.481,2.4808,2.4794,2.4792,2.4814,2.4814,2.4814,0,0,2.5026,2.5013,2.5005,2.4983,2.4971,2.4956,2.4955,2.4939,2.4927,2.4918,2.4897,2.4885,2.4865,2.4843,2.4833,2.4833,2.4801,2.4809,2.4809,2.4807,2.4792,2.479,2.4788,2.4813,2.4813,2.4814,0,0,2.5017,2.5006,2.4992,2.498,2.4962,2.4952,2.4949,2.4929,2.4921,2.49,2.4892,2.4877,2.4847,2.4833,2.4822,2.4804,2.4798,2.4799,2.4794,2.478,2.4779,2.4777,2.4769,2.4767,2.4797,2.4797,2.4797,0,2.5017,2.4996,2.4986,2.497,2.496,2.4951,2.4936,2.4924,2.4901,2.4893,2.4894,2.4856,2.4842,2.4815,2.4811,2.4803,2.4796,2.4801,2.478,2.4778,2.4776,2.4769,2.4766,2.4797,2.4797,2.4797,2.4797,0,2.4997,2.4982,2.4973,2.4951,2.4939,2.4924,2.491,2.4899,2.4892,2.4881,2.4858,2.4841,2.4819,2.4812,2.4806,2.4784,2.4785,2.4783,2.4785,2.4775,2.4767,2.4764,2.4797,2.4797,2.4797,2.4797,0,0,2.4991,2.4964,2.4961,2.495,2.4929,2.4916,2.4899,2.4879,2.4869,2.4852,2.4837,2.4811,2.4809,2.4796,2.4787,2.4775,2.476,2.4774,2.4774,2.4771,2.4732,2.4733,2.473,2.4756,2.4755,2.4755,2.4734,0,2.4978,2.495,2.4939,2.4915,2.49,2.4891,2.4876,2.486,2.4849,2.4832,2.4819,2.4801,2.48,2.4792,2.478,2.4765,2.4752,2.4766,2.4739,2.4738,2.4743,2.4726,2.4727,2.4708,2.4731,2.473,2.473,0,2.4959,2.4944,2.4918,2.4897,2.489,2.4877,2.4857,2.4842,2.4823,2.4815,2.48,2.4792,2.4771,2.4775,2.4745,2.4755,2.4743,2.4733,2.4732,2.4729,2.4733,2.4721,2.4702,2.4699,2.4725,2.4726,2.4726,0,2.4956,2.4929,2.491,2.4901,2.4876,2.4867,2.4856,2.4837,2.4825,2.4806,2.4797,2.4776,2.4764,2.4747,2.4732,2.4736,2.4702,2.4705,2.4694,2.4694,2.4687,2.4687,2.4664,2.4681,2.4681,2.4681,2.4681,0,2.4942,2.4927,2.4908,2.4896,2.4877,2.4864,2.4845,2.4833,2.4816,2.48,2.479,2.4775,2.4757,2.4738,2.4726,2.4702,2.4697,2.4688,2.4685,2.4688,2.4689,2.468,2.468,2.468,2.468,2.468,2.4681,0,2.4936,2.4923,2.4901,2.4879,2.4873,2.486,2.4841,2.4827,2.4815,2.4795,2.4789,2.4769,2.4746,2.473,2.47,2.4692,2.4666,2.4663,2.4673,2.4671,2.4659,2.466,2.4629,2.4623,2.4645,2.4645,2.4644,0,2.4928,2.4916,2.4893,2.4882,2.4871,2.4854,2.4841,2.4827,2.4814,2.4789,2.4778,2.4755,2.4736,2.47,2.4682,2.4658,2.4654,2.4645,2.465,2.4654,2.4652,2.4652,2.465,2.4644,2.4644,2.4643,2.4643,0,2.4914,2.4908,2.4891,2.4871,2.4857,2.484,2.4823,2.4814,2.4796,2.4782,2.4759,2.4744,2.4714,2.469,2.4665,2.4651,2.4643,2.4642,2.4637,2.4641,2.4646,2.4641,2.4669,2.4642,2.4642,2.4643,2.4643,2.4643,2.4906,2.4894,2.4875,2.4856,2.4842,2.4826,2.4812,2.4798,2.4779,2.4754,2.4746,2.4722,2.47,2.4665,2.4651,2.463,2.463,2.4625,2.4623,2.4621,2.4621,2.465,2.4626,2.4626,2.4626,2.4626,2.4626,0,2.489,2.4878,2.486,2.4837,2.4821,2.4817,2.4797,2.4783,2.4763,2.4744,2.4725,2.4698,2.4674,2.4653,2.4628,2.4615,2.4611,2.4609,2.4609,2.4605,2.4623,2.4629,2.4613,2.4613,2.4613,2.4613,2.4613,2.4613,2.488,2.4859,2.485,2.4821,2.4808,2.4785,2.4774,2.4758,2.4743,2.4713,2.4694,2.4681,2.466,2.4633,2.461,2.4604,2.4594,2.4593,2.4586,2.4603,2.4605,2.4606,2.4611,2.4592,2.4592,2.457,2.457,2.457]}]]